User: anonymous   Login
Location: Phoenix
(33.4480°N, 112.0730°W)
Time: 20:49:20
(UTC-07:00)
Language:

HST - Orbit

View from above orbital plane
View from above orbital plane
View from above satellite
View from above satellite

Ground track
Ground track

The orbit data is extracted from the following two-line orbital elements,

1 20580U 90037B   14327.53761258  .00004213  00000-0  26860-3 0  1625
2 20580 028.4711 069.1126 0003032 181.3447 291.0215 15.06231421148762
Epoch (UTC): 23 November 2014 12:54:09
Eccentricity: 0.0003032
inclination: 28.4711°
perigee height: 545 km
apogee height: 550 km
right ascension of ascending node: 69.1126°
argument of perigee: 181.3447°
revolutions per day: 15.06231421
mean anomaly at epoch: 291.0215°
orbit number at epoch: 14876

The dashed part of the orbit path shows where the satellite is in the earth's shadow,  

DLR